Time,TemperatureF,DewpointF,PressureIn,WindDirection,WindDirectionDegrees,WindSpeedMPH,WindSpeedGustMPH,Humidity,HourlyPrecipIn,Conditions,Clouds,dailyrainin,SoftwareType,DateUTC
2013-04-02 00:00:00,31.5,14.0,29.31,WNW,293,2.7,8.7,48,0.00,,,0.29,WUHU216HW,2013-04-02 04:00:00,
2013-04-02 00:05:00,31.3,13.9,29.31,West,270,4.7,8.5,48,0.00,,,0.00,WUHU216HW,2013-04-02 04:05:00,
2013-04-02 00:10:00,31.3,13.9,29.31,NNW,338,1.3,8.5,48,0.00,,,0.00,WUHU216HW,2013-04-02 04:10:00,
2013-04-02 00:16:00,31.1,13.7,29.31,NNW,338,2.5,6.5,48,0.00,,,0.00,WUHU216HW,2013-04-02 04:16:00,
2013-04-02 00:21:00,31.1,13.7,29.31,NNW,338,4.9,4.9,48,0.00,,,0.00,WUHU216HW,2013-04-02 04:21:00,
2013-04-02 00:26:00,31.0,14.1,29.32,NE,45,1.1,5.4,49,0.00,,,0.00,WUHU216HW,2013-04-02 04:26:00,
2013-04-02 00:31:00,30.6,13.7,29.32,WSW,248,3.4,6.9,49,0.00,,,0.00,WUHU216HW,2013-04-02 04:31:00,
2013-04-02 00:36:00,30.6,13.7,29.31,NW,315,1.8,6.9,49,0.00,,,0.00,WUHU216HW,2013-04-02 04:36:00,
2013-04-02 00:42:00,30.6,13.1,29.32,NNW,338,0.4,6.3,48,0.00,,,0.00,WUHU216HW,2013-04-02 04:42:00,
2013-04-02 00:47:00,30.6,13.1,29.32,NNE,23,1.8,6.3,48,0.00,,,0.00,WUHU216HW,2013-04-02 04:47:00,
2013-04-02 00:52:00,30.6,13.1,29.32,West,270,5.4,6.7,48,0.00,,,0.00,WUHU216HW,2013-04-02 04:52:00,
2013-04-02 00:57:00,30.6,13.1,29.32,WNW,293,3.4,7.2,48,0.00,,,0.00,WUHU216HW,2013-04-02 04:57:00,
2013-04-02 01:02:00,30.6,12.7,29.33,West,270,3.8,8.5,47,0.00,,,0.00,WUHU216HW,2013-04-02 05:02:00,
2013-04-02 01:07:00,30.6,12.7,29.33,NW,315,8.5,8.5,47,0.00,,,0.00,WUHU216HW,2013-04-02 05:07:00,
2013-04-02 01:12:00,30.4,12.5,29.33,NW,315,3.6,8.5,47,0.00,,,0.00,WUHU216HW,2013-04-02 05:12:00,
2013-04-02 01:17:00,30.4,12.5,29.33,NW,315,2.0,5.6,47,0.00,,,0.00,WUHU216HW,2013-04-02 05:17:00,
2013-04-02 01:22:00,30.2,12.9,29.33,West,270,0.4,5.4,48,0.00,,,0.00,WUHU216HW,2013-04-02 05:22:00,
2013-04-02 01:27:00,29.9,12.5,29.33,WNW,293,1.3,3.1,48,0.00,,,0.00,WUHU216HW,2013-04-02 05:27:00,
2013-04-02 01:32:00,29.9,12.5,29.33,West,270,4.0,5.6,48,0.00,,,0.00,WUHU216HW,2013-04-02 05:32:00,
2013-04-02 01:37:00,30.1,12.2,29.33,WSW,248,0.4,10.5,47,0.00,,,0.00,WUHU216HW,2013-04-02 05:37:00,
2013-04-02 01:43:00,29.9,12.5,29.33,WSW,248,1.8,10.5,48,0.00,,,0.00,WUHU216HW,2013-04-02 05:43:00,
2013-04-02 01:48:00,29.9,12.1,29.33,ENE,68,2.7,6.0,47,0.00,,,0.00,WUHU216HW,2013-04-02 05:48:00,
2013-04-02 01:53:00,29.7,11.9,29.33,NW,315,3.8,6.0,47,0.00,,,0.00,WUHU216HW,2013-04-02 05:53:00,
2013-04-02 01:58:00,29.9,11.5,29.33,North,0,4.0,5.6,46,0.00,,,0.00,WUHU216HW,2013-04-02 05:58:00,
2013-04-02 02:03:00,29.9,11.0,29.33,NNW,338,2.7,8.3,45,0.00,,,0.00,WUHU216HW,2013-04-02 06:03:00,
2013-04-02 02:08:00,29.7,11.3,29.32,WNW,293,3.6,8.3,46,0.00,,,0.00,WUHU216HW,2013-04-02 06:08:00,
2013-04-02 02:13:00,29.5,11.2,29.33,NW,315,3.4,7.2,46,0.00,,,0.00,WUHU216HW,2013-04-02 06:13:00,
2013-04-02 02:18:00,29.5,11.2,29.33,NNW,338,3.4,4.9,46,0.00,,,0.00,WUHU216HW,2013-04-02 06:18:00,
2013-04-02 02:23:00,29.7,11.3,29.32,NW,315,6.7,7.8,46,0.00,,,0.00,WUHU216HW,2013-04-02 06:23:00,
2013-04-02 02:28:00,29.5,11.2,29.32,NW,315,2.5,7.8,46,0.00,,,0.00,WUHU216HW,2013-04-02 06:28:00,
2013-04-02 02:33:00,29.3,11.1,29.32,West,270,1.8,6.9,46,0.00,,,0.00,WUHU216HW,2013-04-02 06:33:00,
2013-04-02 02:38:00,29.2,10.9,29.32,NW,315,2.5,5.8,46,0.00,,,0.00,WUHU216HW,2013-04-02 06:38:00,
2013-04-02 02:43:00,29.2,11.3,29.32,NNW,338,2.5,5.1,47,0.00,,,0.00,WUHU216HW,2013-04-02 06:43:00,
2013-04-02 02:48:00,29.0,11.3,29.32,NW,315,4.0,4.7,47,0.00,,,0.00,WUHU216HW,2013-04-02 06:48:00,
2013-04-02 02:53:00,29.0,11.3,29.32,WNW,293,1.8,4.0,47,0.00,,,0.00,WUHU216HW,2013-04-02 06:53:00,
2013-04-02 02:59:00,28.8,11.1,29.33,West,270,2.5,5.1,47,0.00,,,0.00,WUHU216HW,2013-04-02 06:59:00,
2013-04-02 03:04:00,28.8,11.5,29.33,NE,45,0.2,5.1,48,0.00,,,0.00,WUHU216HW,2013-04-02 07:04:00,
2013-04-02 03:09:00,28.6,11.4,29.33,WSW,248,1.8,2.9,48,0.00,,,0.00,WUHU216HW,2013-04-02 07:09:00,
2013-04-02 03:14:00,28.4,11.7,29.33,SSW,203,4.7,4.7,49,0.00,,,0.00,WUHU216HW,2013-04-02 07:14:00,
2013-04-02 03:19:00,28.4,11.3,29.33,WSW,248,2.5,5.4,48,0.00,,,0.00,WUHU216HW,2013-04-02 07:19:00,
2013-04-02 03:24:00,28.4,11.3,29.33,NW,315,0.4,5.4,48,0.00,,,0.00,WUHU216HW,2013-04-02 07:24:00,
2013-04-02 03:29:00,28.4,11.3,29.33,NNW,338,4.7,4.7,48,0.00,,,0.00,WUHU216HW,2013-04-02 07:29:00,
2013-04-02 03:34:00,28.4,11.7,29.33,NW,315,2.5,5.1,49,0.00,,,0.00,WUHU216HW,2013-04-02 07:34:00,
2013-04-02 03:39:00,28.3,11.5,29.33,NW,315,1.1,5.1,49,0.00,,,0.00,WUHU216HW,2013-04-02 07:39:00,
2013-04-02 03:44:00,28.1,11.3,29.33,WSW,248,0.4,4.7,49,0.00,,,0.00,WUHU216HW,2013-04-02 07:44:00,
2013-04-02 03:49:00,28.1,11.3,29.33,NNW,338,1.1,5.1,49,0.00,,,0.00,WUHU216HW,2013-04-02 07:49:00,
2013-04-02 03:54:00,27.9,11.7,29.33,WSW,248,1.1,5.1,50,0.00,,,0.00,WUHU216HW,2013-04-02 07:54:00,
2013-04-02 03:59:00,27.7,11.5,29.33,WNW,293,2.0,2.0,50,0.00,,,0.00,WUHU216HW,2013-04-02 07:59:00,
2013-04-02 04:05:00,27.7,11.5,29.33,NNW,338,4.0,6.7,50,0.00,,,0.00,WUHU216HW,2013-04-02 08:05:00,
2013-04-02 04:10:00,27.9,11.7,29.33,NNW,338,2.0,6.7,50,0.00,,,0.00,WUHU216HW,2013-04-02 08:10:00,
2013-04-02 04:15:00,27.9,11.7,29.33,NNW,338,4.0,4.9,50,0.00,,,0.00,WUHU216HW,2013-04-02 08:15:00,
2013-04-02 04:20:00,27.7,11.5,29.33,West,270,1.3,4.9,50,0.00,,,0.00,WUHU216HW,2013-04-02 08:20:00,
2013-04-02 04:25:00,27.7,12.0,29.33,WSW,248,0.0,5.4,51,0.00,,,0.00,WUHU216HW,2013-04-02 08:25:00,
2013-04-02 04:30:00,27.5,11.8,29.33,SSE,158,0.4,5.4,51,0.00,,,0.00,WUHU216HW,2013-04-02 08:30:00,
2013-04-02 04:35:00,27.4,12.0,29.33,West,270,0.2,5.1,52,0.00,,,0.00,WUHU216HW,2013-04-02 08:35:00,
2013-04-02 04:40:00,27.4,12.0,29.33,NNW,338,0.9,3.1,52,0.00,,,0.00,WUHU216HW,2013-04-02 08:40:00,
2013-04-02 04:45:00,27.2,12.3,29.33,WSW,248,3.8,4.0,53,0.00,,,0.00,WUHU216HW,2013-04-02 08:45:00,
2013-04-02 04:50:00,27.2,12.3,29.33,NW,315,1.8,4.0,53,0.00,,,0.00,WUHU216HW,2013-04-02 08:50:00,
2013-04-02 04:55:00,27.0,12.1,29.34,SW,225,0.4,3.8,53,0.00,,,0.00,WUHU216HW,2013-04-02 08:55:00,
2013-04-02 05:01:00,27.0,12.1,29.33,NW,315,4.0,4.0,53,0.00,,,0.00,WUHU216HW,2013-04-02 09:01:00,
2013-04-02 05:06:00,27.0,12.4,29.33,WSW,248,2.2,4.7,54,0.00,,,0.00,WUHU216HW,2013-04-02 09:06:00,
2013-04-02 05:11:00,27.0,12.4,29.33,WSW,248,1.8,4.7,54,0.00,,,0.00,WUHU216HW,2013-04-02 09:11:00,
2013-04-02 05:16:00,27.0,12.9,29.34,WNW,293,1.8,3.8,55,0.00,,,0.00,WUHU216HW,2013-04-02 09:16:00,
2013-04-02 05:21:00,27.0,12.9,29.34,West,270,0.2,3.8,55,0.00,,,0.00,WUHU216HW,2013-04-02 09:21:00,
2013-04-02 05:26:00,26.8,12.2,29.34,SW,225,0.0,2.9,54,0.00,,,0.00,WUHU216HW,2013-04-02 09:26:00,
2013-04-02 05:31:00,26.3,12.2,29.34,WNW,293,0.0,1.6,55,0.00,,,0.00,WUHU216HW,2013-04-02 09:31:00,
2013-04-02 05:36:00,26.1,12.1,29.34,SW,225,0.0,0.9,55,0.00,,,0.00,WUHU216HW,2013-04-02 09:36:00,
2013-04-02 05:41:00,25.7,11.7,29.34,SW,225,0.0,0.4,55,0.00,,,0.00,WUHU216HW,2013-04-02 09:41:00,
2013-04-02 05:46:00,25.4,11.8,29.34,SW,225,0.0,0.0,56,0.00,,,0.00,WUHU216HW,2013-04-02 09:46:00,
2013-04-02 05:52:00,25.0,11.9,29.34,SSW,203,0.2,0.2,57,0.00,,,0.00,WUHU216HW,2013-04-02 09:52:00,
2013-04-02 05:57:00,24.8,12.2,29.35,SSW,203,0.0,0.4,58,0.00,,,0.00,WUHU216HW,2013-04-02 09:57:00,
2013-04-02 06:02:00,24.7,12.0,29.35,SW,225,0.0,0.4,58,0.00,,,0.00,WUHU216HW,2013-04-02 10:02:00,
2013-04-02 06:07:00,24.1,11.8,29.35,WSW,248,0.4,2.9,59,0.00,,,0.00,WUHU216HW,2013-04-02 10:07:00,
2013-04-02 06:12:00,24.5,12.6,29.35,WSW,248,0.9,2.9,60,0.00,,,0.00,WUHU216HW,2013-04-02 10:12:00,
2013-04-02 06:17:00,24.8,13.0,29.35,WSW,248,1.1,3.4,60,0.00,,,0.00,WUHU216HW,2013-04-02 10:17:00,
2013-04-02 06:22:00,24.8,13.0,29.35,SW,225,0.4,3.4,60,0.00,,,0.00,WUHU216HW,2013-04-02 10:22:00,
2013-04-02 06:27:00,24.8,12.5,29.35,SW,225,0.0,1.1,59,0.00,,,0.00,WUHU216HW,2013-04-02 10:27:00,
2013-04-02 06:32:00,24.8,12.5,29.35,NNE,23,0.2,0.9,59,0.00,,,0.00,WUHU216HW,2013-04-02 10:32:00,
2013-04-02 06:37:00,24.7,12.8,29.35,WSW,248,0.4,0.9,60,0.00,,,0.00,WUHU216HW,2013-04-02 10:37:00,
2013-04-02 06:43:00,24.7,12.8,29.36,WSW,248,0.0,1.3,60,0.00,,,0.00,WUHU216HW,2013-04-02 10:43:00,
2013-04-02 06:48:00,24.8,13.0,29.36,SSE,158,0.2,1.3,60,0.00,,,0.00,WUHU216HW,2013-04-02 10:48:00,
2013-04-02 06:53:00,24.8,13.3,29.36,SSW,203,0.4,2.0,61,0.00,,,0.00,WUHU216HW,2013-04-02 10:53:00,
2013-04-02 06:58:00,25.0,13.5,29.36,WSW,248,0.2,2.5,61,0.00,,,0.00,WUHU216HW,2013-04-02 10:58:00,
2013-04-02 07:03:00,25.4,14.1,29.37,WSW,248,0.7,3.4,62,0.00,,,0.00,WUHU216HW,2013-04-02 11:03:00,
2013-04-02 07:08:00,25.7,14.1,29.37,South,180,0.0,3.4,61,0.00,,,0.00,WUHU216HW,2013-04-02 11:08:00,
2013-04-02 07:13:00,25.9,14.3,29.37,SW,225,2.7,3.4,61,0.00,,,0.00,WUHU216HW,2013-04-02 11:13:00,
2013-04-02 07:18:00,26.5,15.1,29.37,SW,225,1.1,4.7,62,0.00,,,0.00,WUHU216HW,2013-04-02 11:18:00,
2013-04-02 07:23:00,26.8,15.5,29.37,WSW,248,2.5,4.7,62,0.00,,,0.00,WUHU216HW,2013-04-02 11:23:00,
2013-04-02 07:28:00,27.2,15.8,29.37,WSW,248,0.9,3.8,62,0.00,,,0.00,WUHU216HW,2013-04-02 11:28:00,
2013-04-02 07:33:00,27.7,16.4,29.37,SW,225,1.1,3.8,62,0.00,,,0.00,WUHU216HW,2013-04-02 11:33:00,
2013-04-02 07:38:00,28.3,16.6,29.37,WSW,248,2.0,4.3,61,0.00,,,0.00,WUHU216HW,2013-04-02 11:38:00,
2013-04-02 07:43:00,28.4,16.7,29.37,WSW,248,4.0,4.9,61,0.00,,,0.00,WUHU216HW,2013-04-02 11:43:00,
2013-04-02 07:48:00,28.4,16.7,29.37,West,270,2.5,4.9,61,0.00,,,0.00,WUHU216HW,2013-04-02 11:48:00,
2013-04-02 07:53:00,28.6,16.9,29.37,NNW,338,1.8,4.3,61,0.00,,,0.00,WUHU216HW,2013-04-02 11:53:00,
2013-04-02 07:58:00,28.8,17.1,29.37,SSW,203,3.4,8.1,61,0.00,,,0.00,WUHU216HW,2013-04-02 11:58:00,
2013-04-02 08:03:00,29.0,16.8,29.37,West,270,2.9,8.1,60,0.00,,,0.00,WUHU216HW,2013-04-02 12:03:00,
2013-04-02 08:09:00,29.2,17.0,29.37,WNW,293,4.0,6.9,60,0.00,,,0.00,WUHU216HW,2013-04-02 12:09:00,
2013-04-02 08:14:00,29.3,16.7,29.37,WSW,248,4.0,5.6,59,0.00,,,0.00,WUHU216HW,2013-04-02 12:14:00,
2013-04-02 08:19:00,29.5,16.9,29.37,West,270,4.3,6.0,59,0.00,,,0.00,WUHU216HW,2013-04-02 12:19:00,
2013-04-02 08:24:00,29.9,16.5,29.37,WSW,248,4.7,6.7,57,0.00,,,0.00,WUHU216HW,2013-04-02 12:24:00,
2013-04-02 08:29:00,29.9,16.5,29.37,WSW,248,1.8,6.7,57,0.00,,,0.00,WUHU216HW,2013-04-02 12:29:00,
2013-04-02 08:34:00,30.4,16.9,29.37,NNW,338,1.3,6.0,57,0.00,,,0.00,WUHU216HW,2013-04-02 12:34:00,
2013-04-02 08:39:00,30.6,15.8,29.37,WNW,293,4.5,10.5,54,0.00,,,0.00,WUHU216HW,2013-04-02 12:39:00,
2013-04-02 08:44:00,30.6,15.8,29.38,SW,225,4.7,10.5,54,0.00,,,0.00,WUHU216HW,2013-04-02 12:44:00,
2013-04-02 08:49:00,31.1,15.9,29.38,NNW,338,2.0,8.1,53,0.00,,,0.00,WUHU216HW,2013-04-02 12:49:00,
2013-04-02 08:54:00,31.9,16.2,29.38,West,270,2.5,7.6,52,0.00,,,0.00,WUHU216HW,2013-04-02 12:54:00,
2013-04-02 08:59:00,32.2,16.5,29.38,North,0,4.0,7.2,52,0.00,,,0.00,WUHU216HW,2013-04-02 12:59:00,
2013-04-02 09:05:00,32.6,15.9,29.38,WSW,248,1.1,8.5,50,0.00,,,0.00,WUHU216HW,2013-04-02 13:05:00,
2013-04-02 09:10:00,33.5,17.2,29.38,NW,315,2.7,8.5,51,0.00,,,0.00,WUHU216HW,2013-04-02 13:10:00,
2013-04-02 09:15:00,33.1,15.9,29.38,WNW,293,0.4,7.4,49,0.00,,,0.00,WUHU216HW,2013-04-02 13:15:00,
2013-04-02 09:20:00,32.8,15.7,29.38,NW,315,3.8,7.4,49,0.00,,,0.00,WUHU216HW,2013-04-02 13:20:00,
2013-04-02 09:25:00,33.3,15.1,29.38,WNW,293,5.4,9.4,47,0.00,,,0.00,WUHU216HW,2013-04-02 13:25:00,
2013-04-02 09:30:00,33.1,15.5,29.38,NNW,338,2.5,9.4,48,0.00,,,0.00,WUHU216HW,2013-04-02 13:30:00,
2013-04-02 09:35:00,34.0,15.8,29.37,NW,315,2.5,8.5,47,0.00,,,0.00,WUHU216HW,2013-04-02 13:35:00,
2013-04-02 09:40:00,34.9,16.7,29.37,SSW,203,6.5,7.4,47,0.00,,,0.00,WUHU216HW,2013-04-02 13:40:00,
2013-04-02 09:45:00,35.1,16.3,29.37,NW,315,3.1,9.2,46,0.00,,,0.00,WUHU216HW,2013-04-02 13:45:00,
2013-04-02 09:50:00,35.6,15.2,29.37,SSW,203,2.5,9.2,43,0.00,,,0.00,WUHU216HW,2013-04-02 13:50:00,
2013-04-02 09:55:00,36.4,16.9,29.37,WSW,248,3.4,7.8,45,0.00,,,0.00,WUHU216HW,2013-04-02 13:55:00,
2013-04-02 10:00:00,35.3,14.4,29.37,WNW,293,2.9,13.6,42,0.00,,,0.00,WUHU216HW,2013-04-02 14:00:00,
2013-04-02 10:05:00,34.6,14.2,29.37,WNW,293,4.0,13.6,43,0.00,,,0.00,WUHU216HW,2013-04-02 14:05:00,
2013-04-02 10:11:00,34.2,13.4,29.37,NNW,338,6.0,7.4,42,0.00,,,0.00,WUHU216HW,2013-04-02 14:11:00,
2013-04-02 10:15:00,33.5,13.2,29.37,NW,315,2.5,7.8,43,0.00,,,0.00,WUHU216HW,2013-04-02 14:15:00,
2013-04-02 10:21:00,33.1,13.4,29.38,WSW,248,2.5,7.8,44,0.00,,,0.00,WUHU216HW,2013-04-02 14:21:00,
2013-04-02 10:26:00,34.2,15.0,29.38,West,270,3.4,7.6,45,0.00,,,0.00,WUHU216HW,2013-04-02 14:26:00,
2013-04-02 10:31:00,35.1,15.3,29.38,NW,315,3.4,6.5,44,0.00,,,0.00,WUHU216HW,2013-04-02 14:31:00,
2013-04-02 10:36:00,34.6,14.2,29.38,WSW,248,4.7,7.6,43,0.00,,,0.00,WUHU216HW,2013-04-02 14:36:00,
2013-04-02 10:41:00,34.0,14.2,29.38,WSW,248,4.0,8.5,44,0.00,,,0.00,WUHU216HW,2013-04-02 14:41:00,
2013-04-02 10:47:00,34.0,14.8,29.38,WNW,293,4.7,8.5,45,0.00,,,0.00,WUHU216HW,2013-04-02 14:47:00,
2013-04-02 10:52:00,34.4,14.0,29.38,SSW,203,4.9,9.6,43,0.00,,,0.00,WUHU216HW,2013-04-02 14:52:00,
2013-04-02 10:57:00,34.6,14.2,29.38,NW,315,3.6,9.6,43,0.00,,,0.00,WUHU216HW,2013-04-02 14:57:00,
2013-04-02 11:02:00,34.9,14.0,29.38,WNW,293,8.1,11.0,42,0.00,,,0.00,WUHU216HW,2013-04-02 15:02:00,
2013-04-02 11:07:00,35.3,13.9,29.37,WNW,293,4.7,11.0,41,0.00,,,0.00,WUHU216HW,2013-04-02 15:07:00,
2013-04-02 11:12:00,35.6,14.2,29.37,WSW,248,8.3,11.2,41,0.00,,,0.00,WUHU216HW,2013-04-02 15:12:00,
2013-04-02 11:17:00,34.7,13.9,29.37,NW,315,2.9,11.2,42,0.00,,,0.00,WUHU216HW,2013-04-02 15:17:00,
2013-04-02 11:22:00,34.9,14.0,29.37,WNW,293,3.4,9.8,42,0.00,,,0.00,WUHU216HW,2013-04-02 15:22:00,
2013-04-02 11:27:00,34.7,14.4,29.37,WNW,293,6.9,9.2,43,0.00,,,0.00,WUHU216HW,2013-04-02 15:27:00,
2013-04-02 11:32:00,34.6,15.3,29.38,WSW,248,7.2,9.2,45,0.00,,,0.00,WUHU216HW,2013-04-02 15:32:00,
2013-04-02 11:37:00,33.8,16.1,29.38,WSW,248,4.0,9.2,48,0.00,,,0.00,WUHU216HW,2013-04-02 15:37:00,
2013-04-02 11:42:00,33.8,18.0,29.38,SSW,203,3.8,12.1,52,0.00,,,0.00,WUHU216HW,2013-04-02 15:42:00,
2013-04-02 11:47:00,35.3,19.0,29.37,West,270,3.4,12.1,51,0.00,,,0.00,WUHU216HW,2013-04-02 15:47:00,
2013-04-02 11:53:00,36.2,18.9,29.37,NNW,338,2.2,7.6,49,0.00,,,0.00,WUHU216HW,2013-04-02 15:53:00,
2013-04-02 11:58:00,35.6,17.4,29.37,West,270,4.9,5.8,47,0.00,,,0.00,WUHU216HW,2013-04-02 15:58:00,
2013-04-02 12:03:00,34.2,16.5,29.37,West,270,4.9,9.8,48,0.00,,,0.00,WUHU216HW,2013-04-02 16:03:00,
2013-04-02 12:08:00,34.7,17.0,29.37,WSW,248,5.6,9.2,48,0.00,,,0.00,WUHU216HW,2013-04-02 16:08:00,
2013-04-02 12:13:00,35.3,15.9,29.36,SSW,203,5.1,9.2,45,0.00,,,0.00,WUHU216HW,2013-04-02 16:13:00,
2013-04-02 12:18:00,35.3,15.4,29.36,NW,315,3.1,10.3,44,0.00,,,0.00,WUHU216HW,2013-04-02 16:18:00,
2013-04-02 12:23:00,35.3,15.0,29.36,WSW,248,3.4,12.8,43,0.00,,,0.00,WUHU216HW,2013-04-02 16:23:00,
2013-04-02 12:28:00,35.1,14.2,29.36,NW,315,11.4,12.8,42,0.00,,,0.00,WUHU216HW,2013-04-02 16:28:00,
2013-04-02 12:34:00,36.0,16.1,29.36,WSW,248,6.3,12.1,44,0.00,,,0.00,WUHU216HW,2013-04-02 16:34:00,
2013-04-02 12:39:00,37.6,16.0,29.36,NW,315,10.3,10.3,41,0.00,,,0.00,WUHU216HW,2013-04-02 16:39:00,
2013-04-02 12:44:00,36.9,16.4,29.35,West,270,1.1,10.3,43,0.00,,,0.00,WUHU216HW,2013-04-02 16:44:00,
2013-04-02 12:49:00,37.6,15.5,29.35,NW,315,4.7,10.3,40,0.00,,,0.00,WUHU216HW,2013-04-02 16:49:00,
2013-04-02 12:54:00,38.2,15.3,29.35,NW,315,4.0,11.0,39,0.00,,,0.00,WUHU216HW,2013-04-02 16:54:00,
2013-04-02 12:59:00,37.3,13.9,29.35,NNW,338,4.7,12.8,38,0.00,,,0.00,WUHU216HW,2013-04-02 16:59:00,
2013-04-02 13:04:00,36.4,13.1,29.35,NW,315,5.1,12.8,38,0.00,,,0.00,WUHU216HW,2013-04-02 17:04:00,
2013-04-02 13:09:00,37.4,15.3,29.35,WNW,293,14.3,14.3,40,0.00,,,0.00,WUHU216HW,2013-04-02 17:09:00,
2013-04-02 13:14:00,37.1,15.5,29.35,WSW,248,6.9,14.3,41,0.00,,,0.00,WUHU216HW,2013-04-02 17:14:00,
2013-04-02 13:19:00,38.2,17.6,29.35,WSW,248,8.5,13.9,43,0.00,,,0.00,WUHU216HW,2013-04-02 17:19:00,
2013-04-02 13:24:00,38.5,17.3,29.34,SW,225,6.3,9.8,42,0.00,,,0.00,WUHU216HW,2013-04-02 17:24:00,
2013-04-02 13:30:00,38.5,16.3,29.35,West,270,6.9,9.8,40,0.00,,,0.00,WUHU216HW,2013-04-02 17:30:00,
2013-04-02 13:35:00,37.6,13.5,29.35,WSW,248,6.5,8.9,37,0.00,,,0.00,WUHU216HW,2013-04-02 17:35:00,
2013-04-02 13:40:00,37.3,13.9,29.34,NNW,338,4.5,9.8,38,0.00,,,0.00,WUHU216HW,2013-04-02 17:40:00,
2013-04-02 13:45:00,37.4,15.3,29.35,SW,225,4.9,9.8,40,0.00,,,0.00,WUHU216HW,2013-04-02 17:45:00,
2013-04-02 13:50:00,37.4,16.4,29.35,WSW,248,4.0,9.4,42,0.00,,,0.00,WUHU216HW,2013-04-02 17:50:00,
2013-04-02 13:55:00,36.9,15.8,29.35,NW,315,7.8,9.8,42,0.00,,,0.00,WUHU216HW,2013-04-02 17:55:00,
2013-04-02 14:00:00,36.4,16.9,29.35,West,270,1.6,13.9,45,0.00,,,0.00,WUHU216HW,2013-04-02 18:00:00,
2013-04-02 14:05:00,37.4,16.8,29.34,WSW,248,2.9,13.9,43,0.00,,,0.00,WUHU216HW,2013-04-02 18:05:00,
2013-04-02 14:10:00,38.2,14.7,29.34,WNW,293,8.3,8.7,38,0.00,,,0.00,WUHU216HW,2013-04-02 18:10:00,
2013-04-02 14:15:00,38.2,14.7,29.35,West,270,5.1,10.1,38,0.00,,,0.00,WUHU216HW,2013-04-02 18:15:00,
2013-04-02 14:21:00,37.3,14.5,29.34,West,270,5.1,10.7,39,0.00,,,0.00,WUHU216HW,2013-04-02 18:21:00,
2013-04-02 14:26:00,38.2,15.9,29.35,WNW,293,5.4,10.7,40,0.00,,,0.00,WUHU216HW,2013-04-02 18:26:00,
2013-04-02 14:31:00,38.5,16.3,29.35,SSW,203,4.5,7.6,40,0.00,,,0.00,WUHU216HW,2013-04-02 18:31:00,
2013-04-02 14:37:00,37.8,14.3,29.34,SW,225,2.5,9.8,38,0.00,,,0.00,WUHU216HW,2013-04-02 18:37:00,
2013-04-02 14:42:00,37.8,14.3,29.34,WSW,248,4.7,9.8,38,0.00,,,0.00,WUHU216HW,2013-04-02 18:42:00,
2013-04-02 14:47:00,36.9,13.5,29.34,NNW,338,6.9,11.4,38,0.00,,,0.00,WUHU216HW,2013-04-02 18:47:00,
2013-04-02 14:52:00,37.1,14.3,29.34,West,270,5.1,11.4,39,0.00,,,0.00,WUHU216HW,2013-04-02 18:52:00,
2013-04-02 14:57:00,38.0,14.5,29.34,SW,225,4.7,9.2,38,0.00,,,0.00,WUHU216HW,2013-04-02 18:57:00,
2013-04-02 15:02:00,37.6,12.9,29.34,NW,315,8.1,9.2,36,0.00,,,0.00,WUHU216HW,2013-04-02 19:02:00,
2013-04-02 15:07:00,37.3,12.5,29.34,North,0,4.7,8.7,36,0.00,,,0.00,WUHU216HW,2013-04-02 19:07:00,
2013-04-02 15:12:00,37.1,12.4,29.33,SSW,203,2.7,9.2,36,0.00,,,0.00,WUHU216HW,2013-04-02 19:12:00,
2013-04-02 15:17:00,37.4,13.3,29.33,WSW,248,4.9,9.2,37,0.00,,,0.00,WUHU216HW,2013-04-02 19:17:00,
2013-04-02 15:22:00,37.8,14.9,29.33,SW,225,9.2,10.5,39,0.00,,,0.00,WUHU216HW,2013-04-02 19:22:00,
2013-04-02 15:27:00,37.4,12.7,29.33,WSW,248,7.6,11.2,36,0.00,,,0.00,WUHU216HW,2013-04-02 19:27:00,
2013-04-02 15:32:00,36.5,11.9,29.33,WSW,248,4.7,11.2,36,0.00,,,0.00,WUHU216HW,2013-04-02 19:32:00,
2013-04-02 15:37:00,37.1,12.4,29.35,WSW,248,6.7,10.1,36,0.00,,,0.00,WUHU216HW,2013-04-02 19:37:00,
2013-04-02 15:43:00,38.2,12.7,29.33,West,270,8.3,12.1,35,0.00,,,0.00,WUHU216HW,2013-04-02 19:43:00,
2013-04-02 15:48:00,37.4,12.1,29.34,WNW,293,5.4,12.3,35,0.00,,,0.00,WUHU216HW,2013-04-02 19:48:00,
2013-04-02 15:53:00,36.5,12.5,29.34,WSW,248,6.7,12.3,37,0.00,,,0.00,WUHU216HW,2013-04-02 19:53:00,
2013-04-02 15:58:00,36.0,12.7,29.34,NNW,338,4.5,11.4,38,0.00,,,0.00,WUHU216HW,2013-04-02 19:58:00,
2013-04-02 16:03:00,37.1,12.4,29.34,SW,225,8.9,11.4,36,0.00,,,0.00,WUHU216HW,2013-04-02 20:03:00,
2013-04-02 16:08:00,37.4,10.8,29.34,NNE,23,4.0,8.9,33,0.00,,,0.00,WUHU216HW,2013-04-02 20:08:00,
2013-04-02 16:13:00,37.4,11.4,29.34,WSW,248,3.4,8.5,34,0.00,,,0.00,WUHU216HW,2013-04-02 20:13:00,
2013-04-02 16:18:00,37.1,10.4,29.34,SW,225,10.7,10.7,33,0.00,,,0.00,WUHU216HW,2013-04-02 20:18:00,
2013-04-02 16:23:00,36.5,11.3,29.34,WNW,293,3.8,10.7,35,0.00,,,0.00,WUHU216HW,2013-04-02 20:23:00,
2013-04-02 16:28:00,36.4,11.1,29.34,NW,315,8.3,10.7,35,0.00,,,0.00,WUHU216HW,2013-04-02 20:28:00,
2013-04-02 16:33:00,36.4,11.1,29.34,West,270,4.7,9.2,35,0.00,,,0.00,WUHU216HW,2013-04-02 20:33:00,
2013-04-02 16:38:00,36.4,11.1,29.34,WSW,248,3.4,8.7,35,0.00,,,0.00,WUHU216HW,2013-04-02 20:38:00,
2013-04-02 16:43:00,36.4,11.1,29.34,NNW,338,10.3,10.3,35,0.00,,,0.00,WUHU216HW,2013-04-02 20:43:00,
2013-04-02 16:48:00,36.0,11.4,29.34,WSW,248,11.4,11.4,36,0.00,,,0.00,WUHU216HW,2013-04-02 20:48:00,
2013-04-02 16:53:00,36.0,11.4,29.34,SSW,203,5.6,11.4,36,0.00,,,0.00,WUHU216HW,2013-04-02 20:53:00,
2013-04-02 16:58:00,36.0,11.4,29.34,West,270,10.3,11.4,36,0.00,,,0.00,WUHU216HW,2013-04-02 20:58:00,
2013-04-02 17:04:00,35.6,10.4,29.35,NW,315,10.5,11.4,35,0.00,,,0.00,WUHU216HW,2013-04-02 21:04:00,
2013-04-02 17:09:00,35.3,10.8,29.35,NNW,338,2.9,12.1,36,0.00,,,0.00,WUHU216HW,2013-04-02 21:09:00,
2013-04-02 17:14:00,34.9,11.1,29.35,NNW,338,5.8,14.8,37,0.00,,,0.00,WUHU216HW,2013-04-02 21:14:00,
2013-04-02 17:19:00,34.9,11.8,29.35,West,270,6.3,14.8,38,0.00,,,0.00,WUHU216HW,2013-04-02 21:19:00,
2013-04-02 17:24:00,35.1,12.5,29.35,WSW,248,5.4,9.8,39,0.00,,,0.00,WUHU216HW,2013-04-02 21:24:00,
2013-04-02 17:29:00,35.3,12.1,29.36,WNW,293,2.7,8.5,38,0.00,,,0.00,WUHU216HW,2013-04-02 21:29:00,
2013-04-02 17:34:00,34.9,10.4,29.36,SSW,203,9.8,14.8,36,0.00,,,0.00,WUHU216HW,2013-04-02 21:34:00,
2013-04-02 17:39:00,34.6,11.4,29.36,NW,315,4.0,14.8,38,0.00,,,0.00,WUHU216HW,2013-04-02 21:39:00,
2013-04-02 17:44:00,34.4,11.3,29.36,NW,315,2.2,12.8,38,0.00,,,0.00,WUHU216HW,2013-04-02 21:44:00,
2013-04-02 17:50:00,34.4,11.9,29.36,NW,315,7.6,14.1,39,0.00,,,0.00,WUHU216HW,2013-04-02 21:50:00,
2013-04-02 17:55:00,34.4,11.3,29.36,NW,315,6.9,14.1,38,0.00,,,0.00,WUHU216HW,2013-04-02 21:55:00,
2013-04-02 18:00:00,34.6,11.4,29.36,WNW,293,8.5,11.4,38,0.00,,,0.00,WUHU216HW,2013-04-02 22:00:00,
2013-04-02 18:05:00,34.2,11.8,29.36,WNW,293,4.0,8.5,39,0.00,,,0.00,WUHU216HW,2013-04-02 22:05:00,
2013-04-02 18:10:00,34.0,12.3,29.36,West,270,5.1,8.1,40,0.00,,,0.00,WUHU216HW,2013-04-02 22:10:00,
2013-04-02 18:15:00,34.2,12.4,29.36,NNW,338,4.7,8.5,40,0.00,,,0.00,WUHU216HW,2013-04-02 22:15:00,
2013-04-02 18:20:00,34.7,12.3,29.36,NW,315,2.0,8.5,39,0.00,,,0.00,WUHU216HW,2013-04-02 22:20:00,
2013-04-02 18:25:00,34.6,12.1,29.37,West,270,3.8,6.7,39,0.00,,,0.00,WUHU216HW,2013-04-02 22:25:00,
2013-04-02 18:31:00,33.8,9.5,29.37,WSW,248,12.5,15.9,36,0.00,,,0.00,WUHU216HW,2013-04-02 22:31:00,
2013-04-02 18:36:00,33.3,9.7,29.38,NNW,338,5.4,15.9,37,0.00,,,0.00,WUHU216HW,2013-04-02 22:36:00,
2013-04-02 18:41:00,33.1,9.6,29.38,WSW,248,6.9,12.1,37,0.00,,,0.00,WUHU216HW,2013-04-02 22:41:00,
2013-04-02 18:46:00,32.9,10.0,29.38,NNW,338,4.7,13.9,38,0.00,,,0.00,WUHU216HW,2013-04-02 22:46:00,
2013-04-02 18:51:00,32.8,10.4,29.38,NW,315,6.9,13.9,39,0.00,,,0.00,WUHU216HW,2013-04-02 22:51:00,
2013-04-02 18:56:00,32.8,11.1,29.38,NW,315,4.0,9.8,40,0.00,,,0.00,WUHU216HW,2013-04-02 22:56:00,
2013-04-02 19:02:00,32.6,11.4,29.38,NW,315,8.7,9.8,41,0.00,,,0.00,WUHU216HW,2013-04-02 23:02:00,
2013-04-02 19:07:00,32.6,11.4,29.38,NW,315,3.4,8.7,41,0.00,,,0.00,WUHU216HW,2013-04-02 23:07:00,
2013-04-02 19:12:00,32.4,11.3,29.38,West,270,7.4,9.8,41,0.00,,,0.00,WUHU216HW,2013-04-02 23:12:00,
2013-04-02 19:17:00,32.4,11.3,29.39,NW,315,9.2,13.4,41,0.00,,,0.00,WUHU216HW,2013-04-02 23:17:00,
2013-04-02 19:22:00,32.4,10.8,29.38,WSW,248,2.5,13.4,40,0.00,,,0.00,WUHU216HW,2013-04-02 23:22:00,
2013-04-02 19:27:00,32.2,10.6,29.39,SW,225,1.3,13.4,40,0.00,,,0.00,WUHU216HW,2013-04-02 23:27:00,
2013-04-02 19:32:00,32.0,11.0,29.39,WSW,248,4.7,11.0,41,0.00,,,0.00,WUHU216HW,2013-04-02 23:32:00,
2013-04-02 19:37:00,32.0,11.0,29.39,WNW,293,1.8,13.4,41,0.00,,,0.00,WUHU216HW,2013-04-02 23:37:00,
2013-04-02 19:42:00,32.0,11.0,29.39,SW,225,6.0,13.4,41,0.00,,,0.00,WUHU216HW,2013-04-02 23:42:00,
2013-04-02 19:47:00,32.0,11.0,29.39,West,270,6.3,10.3,41,0.00,,,0.00,WUHU216HW,2013-04-02 23:47:00,
2013-04-02 19:53:00,32.0,11.0,29.40,WNW,293,10.5,11.4,41,0.00,,,0.00,WUHU216HW,2013-04-02 23:53:00,
2013-04-02 19:58:00,32.0,11.4,29.40,WSW,248,4.0,11.4,42,0.00,,,0.00,WUHU216HW,2013-04-02 23:58:00,
2013-04-02 20:03:00,31.9,11.3,29.40,WNW,293,1.1,8.3,42,0.00,,,0.00,WUHU216HW,2013-04-03 00:03:00,
2013-04-02 20:08:00,31.7,11.6,29.40,SW,225,1.8,7.6,43,0.00,,,0.00,WUHU216HW,2013-04-03 00:08:00,
2013-04-02 20:13:00,31.7,11.6,29.40,West,270,0.9,8.3,43,0.00,,,0.00,WUHU216HW,2013-04-03 00:13:00,
2013-04-02 20:18:00,31.5,12.5,29.40,WSW,248,4.5,8.3,45,0.00,,,0.00,WUHU216HW,2013-04-03 00:18:00,
2013-04-02 20:23:00,31.5,12.5,29.40,NNW,338,4.0,7.8,45,0.00,,,0.00,WUHU216HW,2013-04-03 00:23:00,
2013-04-02 20:28:00,31.5,13.0,29.41,NNW,338,7.6,7.8,46,0.00,,,0.00,WUHU216HW,2013-04-03 00:28:00,
2013-04-02 20:33:00,31.5,13.0,29.41,WSW,248,8.1,10.5,46,0.00,,,0.00,WUHU216HW,2013-04-03 00:33:00,
2013-04-02 20:39:00,31.3,12.8,29.42,SW,225,7.2,12.1,46,0.00,,,0.00,WUHU216HW,2013-04-03 00:39:00,
2013-04-02 20:44:00,31.3,12.8,29.42,SW,225,0.4,12.1,46,0.00,,,0.00,WUHU216HW,2013-04-03 00:44:00,
2013-04-02 20:49:00,31.3,13.3,29.42,WSW,248,3.1,8.5,47,0.00,,,0.00,WUHU216HW,2013-04-03 00:49:00,
2013-04-02 20:54:00,31.1,13.1,29.42,NW,315,2.9,6.7,47,0.00,,,0.00,WUHU216HW,2013-04-03 00:54:00,
2013-04-02 20:59:00,31.1,13.1,29.42,WSW,248,4.0,6.7,47,0.00,,,0.00,WUHU216HW,2013-04-03 00:59:00,
2013-04-02 21:04:00,31.0,13.0,29.42,WSW,248,3.8,8.5,47,0.00,,,0.00,WUHU216HW,2013-04-03 01:04:00,
2013-04-02 21:09:00,31.0,13.5,29.43,NNW,338,1.1,8.5,48,0.00,,,0.00,WUHU216HW,2013-04-03 01:09:00,
2013-04-02 21:15:00,30.8,13.3,29.43,WSW,248,0.9,6.3,48,0.00,,,0.00,WUHU216HW,2013-04-03 01:15:00,
2013-04-02 21:20:00,30.6,13.7,29.42,SSE,158,0.4,5.4,49,0.00,,,0.00,WUHU216HW,2013-04-03 01:20:00,
2013-04-02 21:25:00,30.6,13.7,29.43,NW,315,0.7,5.1,49,0.00,,,0.00,WUHU216HW,2013-04-03 01:25:00,
2013-04-02 21:30:00,30.6,13.7,29.43,WSW,248,0.4,3.8,49,0.00,,,0.00,WUHU216HW,2013-04-03 01:30:00,
2013-04-02 21:35:00,30.6,13.7,29.44,South,180,2.7,3.4,49,0.00,,,0.00,WUHU216HW,2013-04-03 01:35:00,
2013-04-02 21:40:00,30.6,14.2,29.44,NW,315,2.5,10.5,50,0.00,,,0.00,WUHU216HW,2013-04-03 01:40:00,
2013-04-02 21:45:00,31.0,14.1,29.44,WSW,248,1.1,10.5,49,0.00,,,0.00,WUHU216HW,2013-04-03 01:45:00,
2013-04-02 21:50:00,31.0,14.1,29.43,WSW,248,0.4,6.3,49,0.00,,,0.00,WUHU216HW,2013-04-03 01:50:00,
2013-04-02 21:55:00,30.8,13.9,29.43,WNW,293,1.1,4.9,49,0.00,,,0.00,WUHU216HW,2013-04-03 01:55:00,
2013-04-02 22:00:00,30.8,14.3,29.43,West,270,2.0,4.3,50,0.00,,,0.00,WUHU216HW,2013-04-03 02:00:00,
2013-04-02 22:05:00,30.8,14.3,29.43,West,270,0.7,4.3,50,0.00,,,0.00,WUHU216HW,2013-04-03 02:05:00,
2013-04-02 22:10:00,30.8,14.3,29.43,SW,225,2.2,4.0,50,0.00,,,0.00,WUHU216HW,2013-04-03 02:10:00,
2013-04-02 22:15:00,30.8,14.8,29.43,SW,225,0.9,5.4,51,0.00,,,0.00,WUHU216HW,2013-04-03 02:15:00,
2013-04-02 22:21:00,31.0,15.0,29.43,NW,315,3.4,6.3,51,0.00,,,0.00,WUHU216HW,2013-04-03 02:21:00,
2013-04-02 22:26:00,31.0,15.0,29.43,WNW,293,3.6,6.3,51,0.00,,,0.00,WUHU216HW,2013-04-03 02:26:00,
2013-04-02 22:32:00,31.0,14.5,29.43,WNW,293,1.1,5.1,50,0.00,,,0.00,WUHU216HW,2013-04-03 02:32:00,
2013-04-02 22:37:00,30.8,14.3,29.42,NW,315,3.8,4.0,50,0.00,,,0.00,WUHU216HW,2013-04-03 02:37:00,
2013-04-02 22:42:00,31.0,15.0,29.43,SW,225,4.5,9.8,51,0.00,,,0.00,WUHU216HW,2013-04-03 02:42:00,
2013-04-02 22:47:00,31.0,14.5,29.42,WNW,293,10.1,10.1,50,0.00,,,0.00,WUHU216HW,2013-04-03 02:47:00,
2013-04-02 22:52:00,31.1,14.7,29.42,WSW,248,4.3,10.1,50,0.00,,,0.00,WUHU216HW,2013-04-03 02:52:00,
2013-04-02 22:57:00,31.1,14.7,29.42,WSW,248,5.4,9.8,50,0.00,,,0.00,WUHU216HW,2013-04-03 02:57:00,
2013-04-02 23:02:00,31.1,14.7,29.42,NW,315,5.4,9.8,50,0.00,,,0.00,WUHU216HW,2013-04-03 03:02:00,
2013-04-02 23:07:00,31.0,14.5,29.42,West,270,5.4,8.7,50,0.00,,,0.00,WUHU216HW,2013-04-03 03:07:00,
2013-04-02 23:12:00,30.8,14.8,29.42,North,0,1.3,8.3,51,0.00,,,0.00,WUHU216HW,2013-04-03 03:12:00,
2013-04-02 23:17:00,30.8,14.8,29.42,North,0,2.7,7.8,51,0.00,,,0.00,WUHU216HW,2013-04-03 03:17:00,
2013-04-02 23:23:00,30.8,14.8,29.42,WNW,293,5.4,7.8,51,0.00,,,0.00,WUHU216HW,2013-04-03 03:23:00,
2013-04-02 23:28:00,31.0,15.4,29.42,NNE,23,5.4,6.9,52,0.00,,,0.00,WUHU216HW,2013-04-03 03:28:00,
2013-04-02 23:33:00,30.8,15.2,29.42,NW,315,5.4,10.5,52,0.00,,,0.00,WUHU216HW,2013-04-03 03:33:00,
2013-04-02 23:38:00,30.8,15.2,29.42,WSW,248,3.4,10.5,52,0.00,,,0.00,WUHU216HW,2013-04-03 03:38:00,
2013-04-02 23:43:00,30.8,15.2,29.42,NNW,338,6.9,8.9,52,0.00,,,0.00,WUHU216HW,2013-04-03 03:43:00,
2013-04-02 23:48:00,30.8,15.6,29.42,WNW,293,4.3,8.9,53,0.00,,,0.00,WUHU216HW,2013-04-03 03:48:00,
2013-04-02 23:54:00,30.8,15.2,29.42,WNW,293,3.4,10.3,52,0.00,,,0.00,WUHU216HW,2013-04-03 03:54:00,
2013-04-02 23:59:00,30.6,15.0,29.42,SW,225,1.3,10.3,52,0.00,,,0.00,WUHU216HW,2013-04-03 03:59:00,